Regional Weather Roundup
Issued by NWS

Home | Current Version | Previous Version | Graphics & Text | Print | Product List | Glossary On
Versions: 1 2 3 4 5 6 7 8 9 10 11 12 13 14 15 16 17 18 19 20 21 22 23 24 25 26 27 28 29 30 31 32 33 34 35 36 37 38 39 40 41 42 43 44 45 46 47 48 49 50
000
ASUS43 KLOT 221410
RWRIL

ILLINOIS REGIONAL WEATHER ROUNDUP
NATIONAL WEATHER SERVICE CHICAGO/ROMEOVILLE IL
900 AM CDT WED OCT 22 2014

NOTE: "FAIR" INDICATES FEW OR NO CLOUDS BELOW 12,000 FEET WITH NO
SIGNIFICANT WEATHER AND/OR OBSTRUCTIONS TO VISIBILITY.

* THESE STATIONS ARE NOT UNDER NWS QUALITY CONTROL. THEY ALSO MAY NOT
  REPORT WEATHER SUCH AS PRECIPITATION OR FOG.

ILZ001-002-007-009-015-016-024-221500-
NORTHWEST ILLINOIS

CITY           SKY/WX    TMP DP  RH WIND       PRES   REMARKS
MOLINE         SUNNY     38  35  89 E5        30.34S WCI  34
STERLING*      SUNNY     39  36  87 E7        30.35S WCI  34
SAVANNA*       SUNNY     40  37  89 E3        30.35R
$$

ILZ003-004-008-010-011-017-018-221500-
NORTH CENTRAL ILLINOIS

CITY           SKY/WX    TMP DP  RH WIND       PRES   REMARKS
ROCKFORD       SUNNY     39  35  86 CALM      30.38R
FREEPORT*      SUNNY     32  31  98 CALM      30.37S FOG
ROCHELLE*      SUNNY     37  36  95 CALM      30.37R
DE KALB*       SUNNY     39  36  90 CALM      30.36R
PERU*          SUNNY     41  38  91 E3        30.37R
$$

ILZ005-006-012>014-019>023-221500-
NORTHEAST ILLINOIS

CITY           SKY/WX    TMP DP  RH WIND       PRES   REMARKS
CHICAGO-OHARE  MOSUNNY   46  40  79 NE6       30.35R
CHICAGO-MIDWAY MOSUNNY   46  37  71 SE7       30.36R
AURORA         SUNNY     42  38  85 CALM      30.36R
LANSING*       SUNNY     41  37  87 CALM      30.37R
JOLIET*        SUNNY     44  37  78 E3        30.37R
WAUKEGAN       MOSUNNY   42  40  92 CALM      30.35R
DUPAGE AIRPORT SUNNY     45  40  82 N3        30.35R
KANKAKEE*      SUNNY     43  39  86 E6        30.36R
WHEELING       SUNNY     48  41  76 CALM      30.36R
MORRIS*        SUNNY     42  40  93 CALM      30.36R
ROMEOVILLE*    SUNNY     44  38  81 S6        30.36R
NORTHERLY ISL    N/A     48  39  71 S5          N/A
$$

LMZ740>746-221500-
SOUTHERN LAKE MICHIGAN

STATION/POSITION SKY/WX   TEMP    WIND        PRES    VSBY  WAVE
                          AIR SEA DIR/SP/G                  HT/PER
                          (F)     (DEG/KT/KT) (MB)    (MI)  (FT/S)
SOUTHERN BUOY              47 54   90/  8/ 10 1028.6R         2/ 4
WAUKEGAN HARBOR            49     130/  8/  9   N/A
BURNHAM HARBOR             48     180/  5/  8   N/A
CALUMET HARBOR             45     220/  2/  4 1026.7R
MICHIGAN CITY              41      90/  8/ 11   N/A
$$

ILZ025>027-034>036-040-047-049-050-058-095>099-221500-
WEST-CENTRAL ILLINOIS

CITY           SKY/WX    TMP DP  RH WIND       PRES   REMARKS
QUINCY         SUNNY     45  40  82 SE9       30.31R
GALESBURG*     SUNNY     42  38  87 E8        30.34S
MACOMB*        SUNNY     39  39 100 CALM      30.36R FOG
JACKSONVILLE*  SUNNY     44  41  88 E3        30.34R
PITTSFIELD*    SUNNY     46  41  84 E3        30.34R
$$

ILZ028>032-037-038-041>044-048-051>054-059>061-221500-
CENTRAL ILLINOIS

CITY           SKY/WX    TMP DP  RH WIND       PRES   REMARKS
PONTIAC        SUNNY     44  38  82 E8        30.37R
BLOOMINGTON    SUNNY     44  40  86 CALM      30.36R
DECATUR        SUNNY     44  39  82 E7        30.35R
PEORIA         SUNNY     44  39  82 E7        30.35R
LACON*         FOG       37  37  98 CALM      30.36R VSB<1/4
LINCOLN*       SUNNY     43  41  94 E5        30.35R
SPRINGFIELD    SUNNY     44  39  82 E7        30.34R
TAYLORVILLE    SUNNY     43  37  81 E6        30.34R
$$

ILZ033-039-045-046-055>057-062-063-221500-
EAST-CENTRAL ILLINOIS

CITY           SKY/WX    TMP DP  RH WIND       PRES   REMARKS
CHAMPAIGN      SUNNY     44  39  82 E6        30.34R
DANVILLE*      SUNNY     43  38  82 E6        30.32R
RANTOUL*         N/A    N/A N/A N/A MISG      30.35S
MATTOON        SUNNY     42  38  85 E5        30.33R
PARIS*         SUNNY     44  40  86 E3        30.35R
$$

ILZ079-100>102-221500-
SOUTHWEST ILLINOIS

CITY           SKY/WX    TMP DP  RH WIND       PRES   REMARKS
ALTON          SUNNY     46  41  81 CALM      30.33R
BELLEVILLE     SUNNY     46  43  90 VRB2      30.31R
CAHOKIA*       SUNNY     46  42  86 CALM      30.33R
SPARTA*        SUNNY     44  42  91 CALM      30.32R
$$

ILZ064>066-069>071-074>076-080>082-084>086-088>090-092>094-221500-
SOUTH-CENTRAL ILLINOIS

CITY           SKY/WX    TMP DP  RH WIND       PRES   REMARKS
CARBONDALE     SUNNY     45  42  89 E5        30.31S FOG
CAIRO*         SUNNY     51  46  86 NE6       30.30R
EFFINGHAM*     SUNNY     47  37  66 E6        30.34R
MARION         SUNNY     46  45  93 E6        30.32R
MT. VERNON     SUNNY     46  39  76 NE6       30.33R
CENTRALIA*     HAZE      46  41  80 E6        30.32R VSB 1/2
SALEM*         SUNNY     48  44  86 E3        30.33R
METROPOLIS*    SUNNY     49  46  88 NE5       30.29S
$$

ILZ067-068-072-073-078-083-087-091-221500-
SOUTHEAST ILLINOIS

CITY           SKY/WX    TMP DP  RH WIND       PRES   REMARKS
LAWRENCEVILLE  SUNNY     47  41  80 NE7       30.33R
FLORA*         SUNNY     45  41  85 E6        30.34R
FAIRFIELD*     SUNNY     47  43  87 NE5       30.32R
HARRISBURG*    SUNNY     47  45  93 NE6       30.32S
ROBINSON*      SUNNY     46  43  90 NE3       30.35R
CARMI*         SUNNY     49  47  91 E7        30.32R
$$

ABBREVIATIONS USED IN REMARKS
   TC - TEMPERATURE IN CELSIUS
  WCI - WIND CHILL INDEX
   HX - HEAT INDEX
  VSB - VISIBILITY
$$




USA.gov is the U.S. government's official web portal to all federal, state and local government web resources and services.